Regional Weather Roundup
Issued by NWS

Home | Current Version | Previous Version | Text Only | Print | Product List | Glossary On
Versions: 1 2 3 4 5 6 7 8 9 10 11 12 13 14 15 16 17 18 19 20 21 22 23 24 25 26 27 28 29 30 31 32 33 34 35 36 37 38 39 40 41 42 43 44 45 46 47 48 49 50
000
ASUS44 KFWD 221701
RWRTX
NORTH TEXAS HOURLY WEATHER ROUNDUP
NATIONAL WEATHER SERVICE FORT WORTH TX
1100 AM CST WED NOV 22 2017

NOTE: "FAIR" INDICATES FEW OR NO CLOUDS BELOW 12,000 FEET WITH NO
SIGNIFICANT WEATHER AND/OR OBSTRUCTIONS TO VISIBILITY.

TXZ118-119-221800-
DALLAS/FORT WORTH METROPLEX

CITY           SKY/WX    TMP DP  RH WIND       PRES   REMARKS
DFW AIRPORT    PTSUNNY   48  22  35 N15       30.37F
DALLAS LOVE    PTSUNNY   47  22  37 N10       30.38F
FTW MEACHAM    MOSUNNY   48  20  32 NW10      30.39F
DAL-EXECUTIVE  MOSUNNY   48  24  39 N12G18    30.37F
FTW-ALLIANCE   PTSUNNY   46  20  35 N9        30.39F
FTW-NAS-JRB    PTSUNNY   45  19  35 NW10      30.41S WCI  40
FTW-SPINKS     SUNNY     46  18  31 N13       30.41S
ARLINGTON      PTSUNNY   47  21  35 NW13      30.38F
GRAND PRAIRIE  SUNNY     45  18  33 N9        30.40F WCI  40
ADDISON        PTSUNNY   45  21  39 NW13      30.40F WCI  38
MESQUITE       SUNNY     46  23  39 N8        30.38F
LANCASTER      SUNNY     48  24  38 N9        30.38F
$$

TXZ091>094-102>105-117-120-121-131>134-221800-
NORTH CENTRAL TEXAS

CITY           SKY/WX    TMP DP  RH WIND       PRES   REMARKS
SHRMAN/DENISON MOSUNNY   44  23  43 NW9       30.40F WCI  39
GAINESVILLE    MOSUNNY   44  19  37 N8        30.41F WCI  39
BOWIE          MOSUNNY   43  19  38 NW9       30.40F WCI  38
BRIDGEPORT     MOSUNNY   44  21  41 NW9       30.44F WCI  38
DECATUR        MOSUNNY   44  18  34 NW7       30.39F
DENTON         MOSUNNY   45  21  38 NW9       30.40F
MCKINNEY       MOSUNNY   46  25  43 NW9       30.38F
BONHAM         SUNNY     43  22  43 N7        30.38S WCI  39
ROCKWALL       CLOUDY    46  26  45 NW7       30.38S
TERRELL        SUNNY     50  23  34 NW8       30.37F
WAXAHACHIE     MOSUNNY   49  26  41 N8        30.38F
CLEBURNE       MOSUNNY   48  19  32 N13G20    30.40S
GRANBURY       MOSUNNY   47  20  33 NW10      30.42F
$$

TXZ083>090-098>101-113>116-127>130-139>142-154-155-221800-
WESTERN NORTH TEXAS

CITY           SKY/WX    TMP DP  RH WIND       PRES   REMARKS
WICHITA FALLS  CLOUDY    40  17  39 NW7       30.44F WCI  35
WF-KICKAPOO    CLOUDY    39  17  40 NW6       30.47F WCI  35
VERNON         SUNNY     43   9  24 CALM      30.45F
ABILENE        SUNNY     46  18  32 N12       30.43F
ABILENE-DYESS  SUNNY     47  20  34 N9        30.43F
GRAHAM           N/A     45  18  34 N6        30.42F
BRECKENRIDGE   CLOUDY    47  17  29 N8        30.43F
CISCO          SUNNY     45  16  31 N12G17    30.42S WCI  39
EASTLAND       SUNNY     46  16  30 N9        30.41F
RANGER         SUNNY     46  18  33 N12       30.41S WCI  40
MINERAL WELLS  PTSUNNY   46  17  31 NW13      30.40F
STEPHENVILLE   CLOUDY    48  14  25 NW8       30.42S
COMANCHE       SUNNY     47  19  33 N7        30.41F
BROWNWOOD      SUNNY     48  14  25 NW12      30.42S
COLEMAN        SUNNY     49  13  23 N6        30.42S
$$

TXZ143>147-156>162-174-175-221800-
CENTRAL TEXAS

CITY           SKY/WX    TMP DP  RH WIND       PRES   REMARKS
WACO           SUNNY     54  22  28 N13       30.37F
WACO-TSTC      SUNNY     54  23  30 N14       30.37F
WACO-MCGREGOR  SUNNY     52  25  35 N14       30.37F
HILLSBORO      SUNNY     50  23  34 NW10      30.37S
CORSICANA      SUNNY     52  26  36 VRB7      30.37F
MEXIA          SUNNY     52  25  36 NW9       30.34F
HEARNE         SUNNY     55  30  39 NW15G21   30.35F
CAMERON        SUNNY     54  29  38 N9G17     30.35F
TEMPLE         SUNNY     53  24  32 N13       30.36F
KILLEEN        SUNNY     53  22  29 NW15      30.35F
FORT HOOD      SUNNY     53  22  29 N14       30.32F
GATESVILLE     SUNNY     52  19  28 NW10      30.39F
HAMILTON       MOSUNNY   49  18  28 N9        30.39S
LAMPASAS       SUNNY     52  23  32 N10       30.37F
$$

TXZ095>097-106>112-122>126-135>138-148>153-164>167-221800-
EAST TEXAS

CITY           SKY/WX    TMP DP  RH WIND       PRES   REMARKS
PARIS          SUNNY     47  26  44 VRB6      30.36F
SULPHUR SPRNGS SUNNY     48  28  45 N6        30.38S
MOUNT PLEASANT SUNNY     52  29  40 NE5       30.35F
GILMER         SUNNY     51  32  46 N6        30.33S
MINEOLA        SUNNY     52  28  40 N8        30.34F
TYLER          SUNNY     53  28  38 VRB7      30.32F
LONGVIEW       SUNNY     55  37  50 VRB6      30.31F
MARSHALL       SUNNY     53  29  40 N8        30.33F
ATHENS         SUNNY     48  27  43 NW8       30.33F
PALESTINE      SUNNY     54  33  43 N9        30.34S
JACKSONVILLE   SUNNY     54  37  52 N9        30.32F
HENDERSON      SUNNY     55  34  46 N8        30.31F
CENTER         SUNNY     55  34  45 NE9       30.29F
NACOGDOCHES    SUNNY     57  40  52 N7        30.29F
LUFKIN         SUNNY     58  42  55 N9        30.28S
$$

SUPPLEMENTAL OBSERVATIONS (NWS FORT WORTH AREA)

CITY           SKY/WX    TMP DP  RH WIND       PRES   REMARKS
$$

SUPPLEMENTAL OBSERVATIONS (NWS NORMAN AREA)

CITY           SKY/WX    TMP DP  RH WIND       PRES   REMARKS
GOODLETT         N/A     44  12  28 W2        30.44F
ODELL            N/A     43  16  33 W3        30.45F
CROWELL          N/A     45  12  26 NE1       30.47F
KNOX CITY        N/A     47  13  25 NW7       30.47F
SEYMOUR          N/A     43  15  31 NW5       30.46F
$$

SUPPLEMENTAL OBSERVATIONS (NWS SAN ANGELO AREA)

CITY           SKY/WX    TMP DP  RH WIND       PRES   REMARKS
WEINERT          N/A     46  14  28 NW8       30.46F
HASKELL          N/A     45  12  26 N8        30.46F
THROCKMORTON     N/A     44  17  33 NW7       30.45F
STAMFORD         N/A     46  15  29 N8        30.46F
CLYDE            N/A     45  16  30 N8        30.43F
$$

SUPPLEMENTAL OBSERVATIONS (NWS SHREVEPORT AREA)

CITY           SKY/WX    TMP DP  RH WIND       PRES   REMARKS
$$

SUPPLEMENTAL OBSERVATIONS ARE A COLLECTION OF AUTOMATED INSTRUMENTS
THAT ARE MAINTAINED BY A VARIETY OF FEDERAL AND STATE AGENCIES.
CERTAIN ELEMENTS...SUCH AS HUMIDITY VALUES AND SUSTAINED WIND
SPEEDS...MAY BE APPROXIMATED.





USA.gov is the U.S. government's official web portal to all federal, state and local government web resources and services.